Location: Verronge
(16.6833°S, 59.6000°E)
Time: 05:13:21
(UTC+00:00)

Daily predictions for brighter satellites

Satellite Brightness Start Highest point End
(mag) Time Altitude Azimuth Time Altitude Azimuth Time Altitude Azimuth
Meteor 1-15 Rocket 4.5 00:06:51 40° WNW 00:07:49 43° W 00:13:07 10° SSW
SeaSat 1 4.1 00:09:28 10° NE 00:13:57 36° ESE 00:18:28 10° S
TRAILBLAZER 4.4 00:13:00 37° NW 00:14:40 72° WSW 00:19:05 10° SSE
USA 32 4.3 00:12:35 10° SSW 00:17:34 45° W 00:22:30 10° NNW
MSX 4.4 00:16:27 27° NW 00:18:08 32° W 00:23:13 10° SW
Palapa 6 Rocket 3.8 00:16:40 30° W 00:19:22 53° NNW 00:24:21 10° NE
Cosmos 2181 Rocket 4.1 00:13:26 10° N 00:19:35 78° E 00:25:45 10° S
CZ-4B R/B 2.5 00:16:04 10° N 00:19:38 59° W 00:23:12 10° SSW
Cosmos 2084 3.7 00:18:47 39° W 00:19:38 45° WSW 00:23:38 10° S
Cosmos 1707 3.1 00:16:13 10° SSW 00:19:54 41° W 00:20:39 37° WNW
PSLV R/B 4.1 00:17:35 10° NNE 00:21:17 66° ESE 00:25:06 10° S
Cosmos 1892 Rocket 3.9 00:18:53 10° S 00:23:24 71° E 00:27:50 10° N
OAO 3 Copernicus 4.4 00:22:00 30° WNW 00:24:24 66° SSW 00:29:26 10° SE
Cosmos 1850 Rocket 3.9 00:19:45 10° SSW 00:25:03 88° W 00:30:16 10° NNE
Okean O Rocket 3.8 00:21:28 10° NE 00:25:11 28° ESE 00:28:55 10° SSE
Cosmos 1455 Rocket 3.4 00:24:24 25° NW 00:26:22 41° W 00:30:30 10° SSW
Cosmos 1766 3.4 00:24:14 18° NNW 00:26:59 54° W 00:30:56 10° S
Cosmos 304 Rocket 3.7 00:24:10 10° NNW 00:28:56 76° WSW 00:33:45 10° S
CZ-2C R/B 2.9 00:25:15 10° NNW 00:29:50 37° W 00:34:21 10° SSW
Cosmos 1603 4.3 00:24:23 10° S 00:29:56 60° ESE 00:35:25 10° NNE
Cosmos 1544 Rocket 3.7 00:26:20 13° NNW 00:29:59 50° W 00:34:17 10° S
SL-16 R/B 3.0 00:25:33 10° SW 00:30:11 26° WNW 00:34:48 10° NNW
Meteor PRIRODA 3.5 00:26:58 10° N 00:30:39 72° W 00:34:21 10° SSW
Cosmos 371 Rocket 4.5 00:32:30 22° W 00:33:29 23° WSW 00:37:20 10° SSW
Cosmos 1805 3.6 00:31:34 17° NNW 00:34:16 41° W 00:38:01 10° SSW
Cosmos 2154 Rocket 4.0 00:30:29 10° SSW 00:36:38 58° W 00:42:41 10° N
CZ-4B R/B 4.4 00:31:42 10° NNE 00:36:46 46° ESE 00:41:57 10° S
Meteor 1-4 Rocket 3.5 00:34:35 10° SW 00:37:42 26° W 00:39:50 15° NW
MOS 1-B 4.3 00:33:58 10° N 00:39:45 78° WNW 00:45:36 10° SSW
Cosmos 1733 3.1 00:37:27 10° NNW 00:41:14 67° W 00:45:02 10° S
Abrixas rocket 3.9 00:43:26 15° WSW 00:44:15 16° SW 00:46:14 10° S
Cosmos 1674 3.2 00:41:12 10° S 00:44:57 61° E 00:48:38 10° NNE
Helios 1A Rocket 3.3 00:41:28 10° NNE 00:45:34 68° ESE 00:49:40 10° S
Cosmos 1184 Rocket 4.0 00:44:56 19° WNW 00:46:05 23° W 00:48:44 10° SSW
ISS -3.4 00:42:52 10° SW 00:46:08 44° NW 00:49:22 10° NNE
Meteor 1-31 Rocket 3.9 00:44:02 10° NNW 00:47:00 22° W 00:50:01 10° SW
Cosmos 1844 Rocket 2.6 00:44:12 10° NNW 00:49:43 71° WSW 00:55:18 10° S
Meteor 2-17 Rocket 4.5 00:47:16 10° S 00:53:28 89° E 00:59:33 10° N
Okean 1-7 Rocket 4.0 00:50:08 10° SSW 00:54:17 41° W 00:58:24 10° NNW
Cosmos 1470 3.1 00:50:32 10° N 00:54:21 67° E 00:58:13 10° S
Cosmos 1626 Rocket 4.4 00:55:50 10° S 01:00:09 56° E 01:04:23 10° NNE
Meteor 2-5 Rocket 3.7 00:55:08 10° S 01:00:44 72° W 01:06:23 10° N
Cosmos 2341 Rocket 4.0 00:55:28 10° SSW 01:01:46 65° W 01:07:59 10° N
Atlas Centaur 2 2.8 00:58:33 10° SW 01:03:08 51° SSE 01:08:56 10° E
Cosmos 1484 Rocket 3.3 01:00:04 10° NNW 01:03:43 37° W 01:07:27 10° SSW
Cosmos 1943 3.2 00:59:36 10° SSW 01:05:19 86° WNW 01:11:00 10° NNE
Delta 128 4.4 00:58:44 10° WNW 01:05:39 83° SSW 01:11:28 10° ESE
FENGYUN 3A 3.7 01:00:44 10° NNE 01:06:09 88° WNW 01:11:37 10° SSW
SJ-12 4.2 01:03:27 10° N 01:07:26 48° W 01:11:28 10° SSW
ATLAS CENTAUR R/B 2.5 01:05:28 10° SSW 01:08:28 70° ESE 01:15:28 10° NE
ATLAS 3B CENTAUR R/B 3.7 01:08:33 10° WSW 01:22:55 61° SSE 01:28:40 10° E
